Regional Weather Roundup
Issued by NWS

Home | Current Version | Previous Version | Graphics & Text | Print | Product List | Glossary On
Versions: 1 2 3 4 5 6 7 8 9 10 11 12 13 14 15 16 17 18 19 20 21 22 23 24 25 26 27 28 29 30 31 32 33 34 35 36 37 38 39 40 41 42 43 44 45 46 47 48 49 50
000
ASUS43 KMPX 272210
RWRMN
WEATHER ROUNDUP FOR MINNESOTA
NATIONAL WEATHER SERVICE TWIN CITIES/CHANHASSEN MN
500 PM CDT WED AUG 27 2014


NOTE: "FAIR" INDICATES FEW OR NO CLOUDS BELOW 12,000 FEET WITH NO
SIGNIFICANT WEATHER AND/OR OBSTRUCTIONS TO VISIBILITY. N/A MEANS
CURRENT SKY AND/OR WEATHER CONDITIONS ARE NOT AVAILABLE.

MNZ060>063-068>070-272300-
   Twin Cities Metro

CITY           SKY/WX    TMP DP  RH WIND       PRES   REMARKS
TWIN CITIES    PTSUNNY   77  53  43 SE7       30.14F
ST PAUL        MOSUNNY   76  57  51 SE5       30.14F
CRYSTAL        MOSUNNY   76  55  48 E3        30.13F
LAKEVILLE      MOSUNNY   73  57  56 S5        30.14F
EDEN PRAIRIE   MOSUNNY   78  55  44 S7        30.13F
SOUTH ST PAUL  PTSUNNY   76  55  47 E5        30.14F
LAKE ELMO      PTSUNNY   73  57  56 CALM      30.16F
$$
MNZ001>005-007-008-013>017-022>024-027-028-272300-
   Northwest Minnesota

CITY           SKY/WX    TMP DP  RH WIND       PRES   REMARKS
BEMIDJI        MOSUNNY   70  51  50 S3        30.14F
HALLOCK        SUNNY     73  50  43 S12       30.09F
ROSEAU         SUNNY     73  52  46 S5        30.12F
WARROAD        SUNNY     70  52  52 E7        30.13F
THIEF RVR FALL SUNNY     72  52  49 CALM      30.12F
CROOKSTON      SUNNY     73  54  49 SW5       30.12F
FOSSTON        MOSUNNY   73  52  46 SW3       30.14F
DETROIT LAKES  MOSUNNY   70  57  64 S8        30.16F
MOORHEAD       MOSUNNY   73  61  64 S7        30.13F
PARK RAPIDS    MOSUNNY   68  57  68 S7        30.16S
MAHNOMEN       MOCLDY    70  56  62 S5        30.13F
$$
MNZ006-009>011-018-025>026-272300-
   North Central Minnesota

CITY           SKY/WX    TMP DP  RH WIND       PRES   REMARKS
FLAG ISLAND    SUNNY     66  50  55 S8        30.12F
INTL FALLS     PTSUNNY   71  51  49 W7        30.13F
WASKISH        SUNNY     70  54  56 CALM      30.14F
BIG FORK       MOSUNNY   70  52  52 SW5       30.15F
LONGVILLE      SUNNY     70  55  60 S3        30.15F
GRAND RAPIDS   MOSUNNY   70  50  49 W6        30.15F
CRANE LAKE     MOSUNNY   66  50  55 CALM      30.15F
ORR            MOSUNNY   72  46  40 SW3       30.12F
COOK           MOSUNNY   68  48  49 W5        30.15F
WALKER         FAIR      70  54  56 SW5       30.15S
$$
MNZ012-019>021-037-272300-
   Northeast Minnesota

CITY           SKY/WX    TMP DP  RH WIND       PRES   REMARKS
DULUTH         MOSUNNY   70  48  45 NW5       30.16F
ELY            MOSUNNY   66  48  52 W7        30.15F
HIBBING        SUNNY     71  48  43 W7        30.16F
EVELETH        MOSUNNY   66  46  48 W5        30.17F
DULUTH HARBOR  MOSUNNY   72  57  60 E5        30.15F
TWO HARBORS    MOSUNNY   66  54  63 S7        30.14F
SILVER BAY     SUNNY     63  55  77 SE9       30.15S
GRAND MARAIS     N/A     62  55  77 CALM      30.16F
G MARAIS ARPRT MOSUNNY   59  46  63 S5        30.18S
$$
MNZ029>031-032-039>041-046>048-054>057-064-272300-
   West Central Minnesota

CITY           SKY/WX    TMP DP  RH WIND       PRES   REMARKS
FERGUS FALLS   SUNNY     73  54  49 S5        30.13F
WHEATON        MOSUNNY   72  59  64 SE7       30.13F
MORRIS         MOSUNNY   75  57  53 SE9       30.12F
ALEXANDRIA     PTSUNNY   72  57  59 VRB5      30.16F
ELBOW LAKE     FAIR      72  58  62 SE3       30.13F
WADENA         CLOUDY    68  57  68 CALM      30.15F
GLENWOOD       MOSUNNY   73  59  60 CALM      30.15F
APPLETON       MOSUNNY   77  57  50 SE8       30.12S
BENSON         MOSUNNY   75  57  53 S7        30.13F
ORTONVILLE     MOSUNNY   75  57  53 SE9       30.12F
MADISON        MOSUNNY   77  63  61 SE6       30.11F
WILLMAR        FAIR      75  57  53 SE7       30.15F
$$
MNZ033>034-036-042>043-049>051-058-059-272300-
   Central Minnesota

CITY           SKY/WX    TMP DP  RH WIND       PRES   REMARKS
ST CLOUD       MOSUNNY   76  56  49 VRB5      30.14F
SAUK CENTRE    CLOUDY    72  57  60 E7        30.15F
PAYNESVILLE    MOSUNNY   71  55  57 E5        30.15F
AITKIN         PTSUNNY   72  59  64 S6        30.15F
PINE RIVER     CLOUDY    68  57  68 S6        30.19F
BRAINERD       CLOUDY    66  57  72 S6        30.17F
STAPLES        CLOUDY    66  55  68 CALM      30.16F
LONG PRAIRIE   CLOUDY    70  55  60 SE3       30.16F
LITTLE FALLS   PTSUNNY   70  55  60 CALM      30.16F
LITCHFIELD     MOSUNNY   73  57  56 E3        30.15F
BUFFALO        PTSUNNY   73  56  55 NE6       30.15F
MAPLE LAKE     MOSUNNY   76  59  57 NE3       30.16S
$$
MNZ037-044-045-052-053-272300-
   East Central Minnesota

CITY           SKY/WX    TMP DP  RH WIND       PRES   REMARKS
PRINCETON      MOSUNNY   72  57  60 NE3       30.16F
MORA           SUNNY     70  54  56 CALM      30.18F
CAMBRIDGE      SUNNY     75  57  53 N3        30.14F
RUSH CITY      SUNNY     71  55  56 N3        30.17F
MOOSE LAKE     PTSUNNY   68  54  60 SW7       30.15F
HINCKLEY       CLOUDY    70  54  56 CALM      30.17F
CLOQUET        SUNNY     70  48  46 W5        30.16F
MCGREGOR       MOSUNNY   68  55  64 SW3       30.17F
$$
MNZ071>073-080-081-089-090-097-098-272300-
   Southwest Minnesota

CITY           SKY/WX    TMP DP  RH WIND       PRES   REMARKS
MONTEVIDEO     MOSUNNY   79  61  53 S6        30.13F
GRANITE FALLS  MOSUNNY   76  59  54 E7        30.13F
CANBY          PTSUNNY   75  59  56 E8        30.12F
OLIVIA         MOSUNNY   75  55  50 SE8       30.13F
PIPESTONE      PTSUNNY   73  63  68 S10       30.13S
WINDOM         PTSUNNY   73  61  64 E8        30.13F
JACKSON        PTSUNNY   73  61  64 SE9       30.14F
TRACY          MOSUNNY   76  59  56 SE9       30.12F
SLAYTON        MOSUNNY   73  62  69 CALM      30.14F
$$
MNZ065>067-074>077-082>085-091>093-272300-
   South Central Minnesota

CITY           SKY/WX    TMP DP  RH WIND       PRES   REMARKS
MANKATO        MOSUNNY   73  55  53 E7        30.14F
NEW ULM        SUNNY     73  59  60 SE7       30.13F
ST JAMES       MOSUNNY   79  57  47 E8        30.14F
GLENCOE        PTSUNNY   76  55  48 E5        30.13F
FARIBAULT      PTSUNNY   77  54  44 SE3       30.15F
OWATONNA       PTSUNNY   73  57  56 E3        30.15F
WASECA         MOSUNNY   72  52  49 E5        30.16F
ALBERT LEA     PTSUNNY   72  59  64 SE5       30.15F
$$
MNZ078>079-086>088-094>096-272300-
   Southeast Minnesota

CITY           SKY/WX    TMP DP  RH WIND       PRES   REMARKS
ROCHESTER      PTSUNNY   72  58  61 CALM      30.17F
RED WING       PTSUNNY   79  55  44 SE5       30.13F
STANTON        MOSUNNY   76  57  52 CALM      30.13F
DODGE CENTER   PTSUNNY   72  57  60 S3        30.16F
WINONA         PTSUNNY   73  57  56 CALM      30.15F
AUSTIN         CLOUDY    72  61  68 E5        30.15F
PRESTON        PTSUNNY   70  61  72 CALM      30.17F
$$
ABBREVIATIONS USED IN REMARKS
   TC - TEMPERATURES IN CELSIUS
  WCI - WIND CHILL INDEX
   HX - HEAT INDEX
  VSB - VISIBILITY
$$



USA.gov is the U.S. government's official web portal to all federal, state and local government web resources and services.